Flag for Canada Weather past 2 weeks in Trois-Rivieres, Quebec, Canada

Now
2 °F

Frigid.


Feels Like: -9 °F
Forecast: 1 / 11 °F
Wind: 6 mph from North

Location: Trois Rivieres

Current Time: Jan 26, 2015 at 8:28:41 PM

Latest Report: Jan 26, 2015 at 7:00 PM


Visibility: N/A

Pressure: 30.28 "Hg

Humidity: 68%

Dew point: -6 °F

Location of Trois-RivieresLocation

Historic Weather in Trois-Rivieres — Graph

°F

Trois-Rivieres temperature yesterday

Maximum temperature yesterday: 29 °F (at 2:00 AM)
Minimum temperature yesterday: 3 °F (at 8:00 AM)
Average temperature yesterday: 11 °F

Past Weeks' High & Low Weather Summary

 TemperatureHumidityPressure
High33 °F (Jan 19, 12:00 PM)100% (Jan 16, 6:00 AM)30.83 "Hg (Jan 16, 6:00 AM)
Low-17 °F (Jan 14, 4:00 AM)45% (Jan 25, 3:00 PM)29.24 "Hg (Jan 25, 12:00 AM)
Average9 °F80%30.06 "Hg
* Reported Jan 11 7:00 PM — Jan 26 7:00 PM, Trois-Rivieres, Weather by CustomWeather, © 2014

Note: Actual official high and low records may vary slightly from our data, if they occured in-between our weather recording intervals... More about our weather records

Advertising

Trois-Rivieres weather history for previous 24 hours

 ConditionsComfort  
Time TempWeatherWind HumidityBarometerVisibility
7:00 PM
Jan 26
2 °FFrigid.6 mph68%30.28 "HgN/A
6:00 PM6 °FFrigid.7 mph63%30.28 "HgN/A
5:00 PM6 °FFrigid.6 mph63%30.26 "HgN/A
4:00 PM6 °FFrigid.6 mph60%30.23 "HgN/A
3:00 PM7 °FFrigid.7 mph75%30.24 "HgN/A
2:00 PM6 °FFrigid.6 mph64%30.25 "HgN/A
1:00 PM6 °FFrigid.6 mph67%30.27 "HgN/A
12:00 PM3 °FFrigid.5 mphN/A30.27 "HgN/A
11:00 AM2 °FFrigid.5 mph59%30.29 "HgN/A
10:00 AM0 °FFrigid.7 mph62%30.28 "HgN/A
9:00 AM-3 °FFrigid.8 mph88%30.27 "HgN/A
8:00 AM-11 °FExtremely cold.7 mph82%30.27 "HgN/A
7:00 AM-9 °FFrigid.6 mph84%30.25 "HgN/A
6:00 AM-9 °FFrigid.5 mph85%30.22 "HgN/A
5:00 AM-8 °FFrigid.2 mph80%30.19 "HgN/A
4:00 AM-6 °FFrigid.3 mph96%30.18 "HgN/A
3:00 AM-4 °FFrigid.5 mph79%30.16 "HgN/A
2:00 AM-1 °FFrigid.3 mph70%30.15 "HgN/A
1:00 AM0 °FFrigid.3 mph87%30.14 "HgN/A
12:00 AM3 °FFrigid.2 mph73%30.13 "HgN/A
11:00 PM
Jan 25
3 °FFrigid.3 mph75%30.10 "HgN/A
10:00 PM4 °FFrigid.6 mph68%30.08 "HgN/A
9:00 PM6 °FFrigid.5 mph63%30.05 "HgN/A
8:00 PM7 °FFrigid.9 mph60%30.01 "HgN/A
Weather by CustomWeather, © 2014

See weather overviewHow to use our weather pages